2024-149G

Last updated on Mon Sep 16 2024 00:02:03 GMT+0000 (Coordinated Universal Time)

1 60474U 24149G 24258.90977027 .00019100 00000+0 93803-3 0 9999 2 60474 97.4426 333.9996 0002221 34.9720 325.1660 15.18108630 4414
UTC large
Height (km)
Speed (km/s)
/
Latitude / Longitude
Inclination (degrees)
Orbital Period (minutes)
Azimuth
Elevation
Range (km)
Doppler Factor

Next 0 passes for location: London (51.5072 / 0.1276)

Sorry there are no passes over London.